| time (UTC) | temp C | wind direction | speed KPH | gust KPH | rain 1hr cm | rain 24hr cm | rain mn cm | humidity % | barometer mb |
| 20260507133210 | 12 | 267 | 24.1 | 0.0 | 0.00 | 0.00 | 0.15 | 78 | 1014.1 |
| 20260507130210 | 12 | 244 | 19.3 | 0.0 | 0.00 | 0.00 | 0.15 | 71 | 1014.0 |
| 20260507123210 | 13 | 226 | 27.4 | 0.0 | 0.00 | 0.00 | 0.15 | 72 | 1014.0 |
| 20260507120211 | 13 | 244 | 22.5 | 0.0 | 0.00 | 0.00 | 0.15 | 75 | 1014.0 |
| 20260507113210 | 12 | 211 | 22.5 | 0.0 | 0.00 | 0.00 | 0.15 | 77 | 1013.9 |
| 20260507110210 | 11 | 217 | 22.5 | 0.0 | 0.00 | 0.00 | 0.15 | 82 | 1014.0 |
| 20260507103216 | 10 | 215 | 24.1 | 0.0 | 0.00 | 0.00 | 0.15 | 88 | 1014.4 |
| 20260507100212 | 9 | 208 | 19.3 | 0.0 | 0.00 | 0.00 | 0.15 | 87 | 1014.4 |
| 20260507093211 | 8 | 236 | 17.7 | 0.0 | 0.00 | 0.00 | 0.15 | 90 | 1014.1 |
| 20260507090211 | 9 | 233 | 24.1 | 0.0 | 0.00 | 0.00 | 0.15 | 89 | 1013.8 |
| 20260507083212 | 8 | 221 | 24.1 | 0.0 | 0.00 | 0.00 | 0.15 | 92 | 1013.6 |
| 20260507080211 | 7 | 228 | 24.1 | 0.0 | 0.00 | 0.00 | 0.13 | 93 | 1013.4 |
| 20260507073212 | 7 | 232 | 22.5 | 0.0 | 0.00 | 0.00 | 0.13 | 93 | 1013.2 |
| 20260507070212 | 7 | 210 | 24.1 | 0.0 | 0.00 | 0.00 | 0.10 | 93 | 1013.0 |
| 20260507063211 | 7 | 219 | 22.5 | 0.0 | 0.00 | 0.00 | 0.08 | 92 | 1012.6 |
| 20260507060211 | 7 | 240 | 25.7 | 0.0 | 0.00 | 0.00 | 0.03 | 92 | 1012.5 |
| 20260507053211 | 7 | 218 | 22.5 | 0.0 | 0.00 | 0.00 | 0.03 | 92 | 1012.3 |
| 20260507050213 | 7 | 229 | 22.5 | 0.0 | 0.00 | 0.00 | 0.03 | 92 | 1011.9 |
| 20260507043211 | 6 | 202 | 20.9 | 0.0 | 0.00 | 0.00 | 0.03 | 92 | 1011.6 |
| 20260507040216 | 6 | 184 | 20.9 | 0.0 | 0.00 | 0.00 | 0.00 | 92 | 1011.2 |
| 20260507033211 | 6 | 221 | 16.1 | 0.0 | 0.00 | 0.00 | 0.00 | 92 | 1011.0 |
| 20260507030211 | 6 | 229 | 20.9 | 0.0 | 0.00 | 0.00 | 0.00 | 91 | 1010.9 |
| 20260507023211 | 6 | 205 | 25.7 | 0.0 | 0.00 | 0.00 | 0.00 | 91 | 1011.0 |
| 20260507020211 | 6 | 254 | 24.1 | 0.0 | 0.00 | 0.00 | 0.00 | 93 | 1010.9 |
| 20260507013212 | 6 | 211 | 17.7 | 0.0 | 0.00 | 0.00 | 0.00 | 94 | 1010.7 |
| 20260507010211 | 5 | 187 | 6.4 | 0.0 | 0.00 | 0.00 | 0.00 | 93 | 1010.6 |
| 20260507003209 | 5 | 217 | 8.0 | 0.0 | 0.00 | 0.00 | 0.00 | 93 | 1010.3 |
| 20260507000209 | 6 | 193 | 9.7 | 0.0 | 0.00 | 0.00 | 0.00 | 93 | 1010.4 |
| 20260506233209 | 5 | 182 | 11.3 | 0.0 | 0.00 | 0.00 | 0.00 | 92 | 1010.4 |
| 20260506230209 | 6 | 221 | 12.9 | 0.0 | 0.00 | 0.00 | 0.00 | 92 | 1010.1 |
| 20260506223209 | 7 | 211 | 16.1 | 0.0 | 0.00 | 0.00 | 0.00 | 91 | 1010.1 |
| 20260506213209 | 7 | 173 | 22.5 | 0.0 | 0.00 | 0.00 | 0.03 | 90 | 1009.8 |
| 20260506210210 | 7 | 216 | 9.7 | 0.0 | 0.00 | 0.00 | 0.03 | 91 | 1009.7 |
| 20260506203210 | 7 | 211 | 17.7 | 0.0 | 0.00 | 0.00 | 0.03 | 90 | 1009.6 |
| 20260506200210 | 7 | 186 | 22.5 | 0.0 | 0.00 | 0.00 | 0.03 | 91 | 1009.3 |
| 20260506193215 | 8 | 204 | 17.7 | 0.0 | 0.00 | 0.00 | 0.03 | 89 | 1009.2 |
| 20260506190211 | 8 | 213 | 19.3 | 0.0 | 0.00 | 0.00 | 0.03 | 90 | 1008.7 |
| 20260506183209 | 7 | 225 | 25.7 | 0.0 | 0.00 | 0.00 | 0.03 | 89 | 1008.2 |
| 20260506180216 | 8 | 188 | 19.3 | 0.0 | 0.00 | 0.00 | 0.03 | 89 | 1007.8 |
| 20260506173210 | 8 | 257 | 32.2 | 0.0 | 0.00 | 0.00 | 0.03 | 88 | 1008.0 |
| 20260506170215 | 8 | 209 | 29.0 | 0.0 | 0.00 | 0.00 | 0.03 | 88 | 1007.4 |
| 20260506163210 | 8 | 210 | 29.0 | 0.0 | 0.00 | 0.00 | 0.03 | 87 | 1007.2 |
| 20260506160210 | 8 | 214 | 35.4 | 0.0 | 0.00 | 0.00 | 0.03 | 87 | 1007.1 |
| 20260506153210 | 8 | 231 | 51.5 | 0.0 | 0.00 | 0.00 | 0.03 | 89 | 1006.5 |
| 20260506150210 | 9 | 171 | 48.3 | 0.0 | 0.00 | 0.00 | 0.03 | 90 | 1005.6 |
| 20260506143210 | 13 | 209 | 16.1 | 0.0 | 0.00 | 0.00 | 0.00 | 78 | 1004.6 |
| 20260506140210 | 15 | 144 | 14.5 | 0.0 | 0.00 | 0.00 | 0.00 | 72 | 1004.3 |